East Mecca
DateTemperatureDew Point
10/17 - 03:15 PM84.2°33.0°
10/17 - 03:00 PM84.0°31.4°
10/17 - 02:45 PM84.0°30.1°
10/17 - 02:30 PM84.1°29.6°
10/17 - 02:15 PM84.3°31.1°
10/17 - 02:00 PM83.9°31.1°
10/17 - 01:45 PM83.1°31.9°
10/17 - 01:30 PM81.5°37.3°
10/17 - 01:15 PM80.5°41.3°
10/17 - 01:00 PM79.5°47.4°
10/17 - 12:45 PM78.2°50.1°
10/17 - 12:30 PM77.1°52.1°
10/17 - 12:15 PM76.2°53.6°
10/17 - 12:00 PM75.7°54.5°
10/17 - 11:45 AM75.5°54.7°
10/17 - 11:30 AM75.3°53.9°
10/17 - 11:15 AM75.6°52.8°
10/17 - 11:00 AM74.8°53.9°
10/17 - 10:45 AM75.0°52.3°
10/17 - 10:30 AM74.4°50.4°
10/17 - 10:15 AM73.8°51.6°
10/17 - 10:00 AM73.9°51.0°
10/17 - 09:45 AM73.4°41.8°
10/17 - 09:30 AM71.7°42.7°
10/17 - 09:15 AM70.0°47.4°
10/17 - 09:00 AM68.4°47.7°
10/17 - 08:45 AM66.4°48.4°
10/17 - 08:30 AM63.2°48.4°
10/17 - 08:15 AM61.1°45.1°
10/17 - 08:00 AM56.9°47.8°
10/17 - 07:45 AM55.2°47.3°
10/17 - 07:30 AM56.6°46.5°
10/17 - 07:15 AM53.8°42.4°
10/17 - 07:00 AM52.0°43.3°
10/17 - 06:45 AM52.4°44.2°
10/17 - 06:30 AM52.1°44.1°
10/17 - 06:15 AM52.3°43.1°
10/17 - 06:00 AM53.6°43.5°
10/17 - 05:45 AM52.6°41.9°
10/17 - 05:30 AM51.1°42.9°
10/17 - 05:15 AM51.4°42.4°
10/17 - 05:00 AM51.5°42.6°
10/17 - 04:45 AM51.5°41.1°
10/17 - 04:30 AM53.5°39.3°
10/17 - 04:15 AM55.4°36.4°
10/17 - 04:00 AM53.5°41.0°
10/17 - 03:45 AM54.0°40.7°
10/17 - 03:30 AM53.4°40.3°
10/17 - 03:15 AM53.3°41.1°
10/17 - 03:00 AM55.7°40.1°
10/17 - 02:45 AM58.7°36.1°
10/17 - 02:30 AM55.8°40.3°
10/17 - 02:15 AM57.5°38.1°
10/17 - 02:00 AM58.9°36.3°
10/17 - 01:45 AM56.4°42.3°
10/17 - 01:30 AM57.9°37.2°
10/17 - 01:15 AM56.7°40.9°
10/17 - 01:00 AM56.9°41.4°
10/17 - 12:45 AM57.1°42.4°
10/17 - 12:30 AM60.2°39.9°
10/17 - 12:15 AM58.7°42.3°
10/17 - 12:00 AM58.3°41.8°
10/16 - 11:45 PM57.9°44.8°
10/16 - 11:30 PM58.3°44.0°
10/16 - 11:15 PM59.3°41.2°
10/16 - 11:00 PM61.3°42.5°
10/16 - 10:45 PM62.9°39.2°
10/16 - 10:30 PM64.3°40.2°
10/16 - 10:15 PM64.9°37.9°
10/16 - 10:00 PM64.4°38.2°
10/16 - 09:45 PM66.9°34.3°
10/16 - 09:30 PM67.2°31.5°
10/16 - 09:15 PM67.8°30.6°
10/16 - 09:00 PM67.4°32.1°
10/16 - 08:45 PM68.2°31.9°
10/16 - 08:30 PM69.2°32.4°
10/16 - 08:15 PM68.4°33.2°
10/16 - 08:00 PM67.4°32.4°
10/16 - 07:45 PM68.2°32.6°
10/16 - 07:30 PM68.3°37.5°
10/16 - 07:15 PM69.3°39.1°
10/16 - 07:00 PM70.8°40.3°
10/16 - 06:45 PM72.4°40.9°
10/16 - 06:30 PM76.5°35.3°
10/16 - 06:15 PM77.2°38.8°
10/16 - 06:00 PM79.0°45.9°
10/16 - 05:45 PM81.5°46.0°
10/16 - 05:30 PM84.2°40.7°
10/16 - 05:15 PM85.9°37.8°
10/16 - 05:00 PM86.9°36.9°
10/16 - 04:45 PM87.6°36.4°
10/16 - 04:30 PM88.2°36.1°
10/16 - 04:15 PM88.6°35.5°
10/16 - 04:00 PM89.2°34.7°
10/16 - 03:45 PM89.9°34.4°
10/16 - 03:30 PM89.8°33.0°
10/16 - 03:15 PM90.1°34.2°
10/16 - 03:00 PM89.5°34.0°
10/16 - 02:45 PM89.2°32.5°
10/16 - 02:30 PM89.0°32.7°
10/16 - 02:15 PM89.2°34.0°
10/16 - 02:00 PM88.6°34.3°
10/16 - 01:45 PM89.0°31.4°
10/16 - 01:30 PM88.9°29.6°
10/16 - 01:15 PM88.8°30.1°
10/16 - 01:00 PM88.3°30.6°
10/16 - 12:45 PM87.5°30.3°
10/16 - 12:30 PM86.8°30.7°
10/16 - 12:15 PM86.8°32.3°
10/16 - 12:00 PM86.1°32.7°
10/16 - 11:45 AM85.2°32.9°
10/16 - 11:30 AM84.5°32.6°
10/16 - 11:15 AM84.1°35.8°
10/16 - 11:00 AM83.3°35.6°
10/16 - 10:45 AM81.9°35.4°
10/16 - 10:30 AM80.5°34.4°
10/16 - 10:15 AM79.7°37.0°
10/16 - 10:00 AM79.1°38.6°
10/16 - 09:45 AM78.1°41.6°
10/16 - 09:30 AM76.4°42.9°
10/16 - 09:15 AM73.7°41.9°
10/16 - 09:00 AM70.5°41.8°
10/16 - 08:45 AM67.8°44.2°
10/16 - 08:30 AM65.6°43.0°
10/16 - 08:15 AM63.3°42.0°
10/16 - 08:00 AM62.8°41.4°
10/16 - 07:45 AM63.0°34.1°
10/16 - 07:30 AM62.8°31.8°
10/16 - 07:15 AM58.9°31.6°
10/16 - 07:00 AM56.9°34.9°
10/16 - 06:45 AM57.1°34.6°
10/16 - 06:30 AM58.9°33.3°
10/16 - 06:15 AM59.5°34.5°
10/16 - 06:00 AM59.5°30.6°
10/16 - 05:45 AM61.4°27.5°
10/16 - 05:30 AM62.4°27.3°
10/16 - 05:15 AM61.7°26.6°
10/16 - 05:00 AM61.8°28.8°
10/16 - 04:45 AM64.4°29.8°
10/16 - 04:30 AM69.0°26.4°
10/16 - 04:15 AM71.3°23.7°
10/16 - 04:00 AM69.2°24.4°
10/16 - 03:45 AM68.0°25.2°
10/16 - 03:30 AM69.3°23.9°
10/16 - 03:15 AM69.7°23.9°
10/16 - 03:00 AM68.7°24.3°
10/16 - 02:45 AM68.7°24.7°
10/16 - 02:30 AM68.0°25.4°
10/16 - 02:15 AM67.7°25.6°
10/16 - 02:00 AM67.7°26.1°
10/16 - 01:45 AM66.5°27.1°
10/16 - 01:30 AM65.3°28.0°
10/16 - 01:15 AM65.6°29.0°
10/16 - 01:00 AM68.6°26.4°
10/16 - 12:45 AM64.4°29.3°
10/16 - 12:30 AM66.4°28.2°
10/16 - 12:15 AM65.3°29.5°
10/16 - 12:00 AM67.2°27.9°
10/15 - 11:45 PM66.0°28.6°
10/15 - 11:30 PM62.9°30.0°
10/15 - 11:15 PM67.5°28.9°
10/15 - 11:00 PM67.9°29.5°
10/15 - 10:45 PM69.5°28.2°
10/15 - 10:30 PM70.3°27.3°
10/15 - 10:15 PM69.1°27.9°
10/15 - 10:00 PM68.7°29.1°
10/15 - 09:45 PM68.6°29.1°
10/15 - 09:30 PM68.2°32.5°
10/15 - 09:15 PM67.2°32.6°
10/15 - 09:00 PM66.6°34.0°
10/15 - 08:45 PM65.3°34.8°
10/15 - 08:30 PM64.8°39.2°
10/15 - 08:15 PM65.6°37.1°
10/15 - 08:00 PM67.0°35.4°
10/15 - 07:45 PM68.5°34.9°
10/15 - 07:30 PM68.7°35.3°
10/15 - 07:15 PM71.4°33.3°
10/15 - 07:00 PM72.8°33.4°
10/15 - 06:45 PM72.9°35.8°
10/15 - 06:30 PM74.1°36.4°
10/15 - 06:15 PM76.1°36.9°
10/15 - 06:00 PM78.0°38.3°
10/15 - 05:45 PM80.8°35.4°
10/15 - 05:30 PM82.7°34.0°
10/15 - 05:15 PM84.4°28.0°
10/15 - 05:00 PM85.1°27.1°
10/15 - 04:45 PM85.7°27.8°
10/15 - 04:30 PM86.1°28.3°
10/15 - 04:15 PM86.6°27.8°
10/15 - 04:00 PM86.7°26.8°